CW7779 Weather Reports


Display with metric or nautical units.
time (UTC)temp
F
wind
direction
speed
MPH
gust
MPH
rain 1hr
in
rain 24hr
in
rain mn
in
humidity
%
barometer
mb
20260509033039 64 147 2.0 4.0 0.00 0.00 0.00 78 1016.3
20260509031538 65 153 0.0 3.0 0.00 0.00 0.00 78 1016.2
20260509030041 65 156 2.0 5.0 0.00 0.00 0.00 77 1016.2
20260509024537 65 134 4.0 7.0 0.00 0.00 0.00 76 1016.3
20260509023037 65 126 4.0 8.0 0.00 0.00 0.00 76 1016.6
20260509021537 65 139 6.0 9.0 0.00 0.00 0.00 76 1016.5
20260509020036 65 135 4.0 9.0 0.00 0.00 0.00 76 1016.3
20260509014536 65 137 4.0 8.0 0.00 0.00 0.00 75 1016.2
20260509013046 65 124 5.0 9.0 0.00 0.00 0.00 74 1016.1
20260509011535 65 124 4.0 10.0 0.00 0.00 0.00 74 1015.8
20260509010037 65 151 6.0 10.0 0.00 0.00 0.00 73 1015.8
20260509004558 65 154 4.0 10.0 0.00 0.00 0.00 72 1015.9
20260509003041 65 151 4.0 9.0 0.00 0.00 0.00 71 1016.0
20260509001534 65 125 4.0 9.0 0.00 0.00 0.00 70 1015.9
20260509000032 65 177 3.0 7.0 0.00 0.00 0.00 69 1015.9
20260508234532 66 157 4.0 8.0 0.00 0.00 0.00 68 1016.0
20260508233032 66 145 5.0 9.0 0.00 0.00 0.00 68 1015.6
20260508231531 67 184 6.0 10.0 0.00 0.00 0.00 67 1015.8
20260508230043 67 184 5.0 10.0 0.00 0.00 0.00 66 1015.6
20260508224529 68 127 6.0 10.0 0.00 0.00 0.00 65 1015.4
20260508223029 68 115 6.0 11.0 0.00 0.00 0.00 63 1015.6
20260508221529 69 148 6.0 11.0 0.00 0.00 0.00 58 1015.5
20260508220028 70 153 8.0 11.0 0.00 0.00 0.00 52 1015.6
20260508214527 70 137 5.0 13.0 0.00 0.00 0.00 58 1015.6
20260508213027 70 153 6.0 12.0 0.00 0.00 0.00 60 1015.6
20260508211531 70 155 9.0 13.0 0.00 0.00 0.00 59 1015.6
20260508210029 70 132 6.0 11.0 0.00 0.00 0.00 62 1015.7
20260508204525 71 146 6.0 14.0 0.00 0.00 0.00 60 1015.8
20260508203025 72 174 6.0 13.0 0.00 0.00 0.00 57 1015.7
20260508201524 70 158 7.0 14.0 0.00 0.00 0.00 58 1015.6
20260508200035 71 136 8.0 13.0 0.00 0.00 0.00 56 1016.0
20260508194523 71 132 9.0 14.0 0.00 0.00 0.00 56 1016.1
20260508193025 72 132 6.0 12.0 0.00 0.00 0.00 55 1016.2
20260508191524 72 135 7.0 12.0 0.00 0.00 0.00 56 1016.4
20260508190022 73 116 7.0 11.0 0.00 0.05 0.00 53 1016.4
20260508184542 74 137 5.0 11.0 0.00 0.05 0.00 51 1016.6
20260508183019 74 132 4.0 11.0 0.00 0.05 0.00 50 1016.6
20260508181536 74 135 5.0 9.0 0.00 0.05 0.00 45 1016.7
20260508180017 73 121 5.0 10.0 0.00 0.11 0.00 44 1016.7
20260508174517 72 132 3.0 9.0 0.00 0.11 0.00 43 1016.6
20260508173013 73 92 5.0 10.0 0.00 0.11 0.00 48 1016.7
20260508171510 72 125 5.0 10.0 0.00 0.11 0.00 51 1016.9
20260508170011 70 123 3.0 7.0 0.00 0.33 0.00 59 1017.1
20260508164503 69 105 3.0 7.0 0.00 0.33 0.00 61 1017.1
20260508163101 68 15 1.0 3.0 0.00 0.33 0.00 59 1017.2
20260508161557 66 44 0.0 4.0 0.00 0.33 0.00 64 1017.1
20260508160055 66 343 1.0 5.0 0.00 0.39 0.00 65 1017.2
20260508154552 65 42 1.0 7.0 0.00 0.39 0.00 70 1017.3
20260508153050 64 27 0.0 3.0 0.00 0.39 0.00 71 1017.4
20260508151554 63 296 1.0 4.0 0.00 0.39 0.00 73 1017.2
20260508150053 62 345 0.0 3.0 0.00 0.39 0.00 74 1017.2
20260508144604 63 51 1.0 5.0 0.00 0.39 0.00 75 1017.1
20260508143044 62 51 1.0 5.0 0.00 0.39 0.00 73 1017.1
20260508141545 62 42 2.0 8.0 0.00 0.39 0.00 75 1016.8
20260508140045 61 15 1.0 5.0 0.00 0.40 0.00 75 1016.7
20260508134541 60 59 1.0 5.0 0.00 0.40 0.00 77 1016.8
20260508133053 60 101 1.0 6.0 0.00 0.40 0.00 78 1016.7
20260508131530 59 34 1.0 6.0 0.00 0.40 0.00 79 1016.7
20260508130027 58 22 1.0 6.0 0.00 0.40 0.00 82 1016.7
20260508124530 57 27 0.0 6.0 0.00 0.40 0.00 81 1016.5
20260508123026 57 36 0.0 5.0 0.00 0.40 0.00 83 1016.2
20260508121529 57 36 1.0 8.0 0.00 0.40 0.00 84 1016.2
20260508120023 57 51 1.0 8.0 0.00 0.49 0.00 84 1016.1
20260508114523 56 329 2.0 10.0 0.00 0.49 0.00 84 1016.0
20260508113022 56 24 1.0 10.0 0.00 0.49 0.00 84 1015.7
20260508111521 55 358 1.0 6.0 0.00 0.49 0.00 85 1015.6
20260508110042 55 28 1.0 9.0 0.00 0.91 0.00 85 1015.4
20260508104519 55 3 1.0 8.0 0.00 0.91 0.00 86 1015.1
20260508103019 55 9 1.0 6.0 0.00 0.91 0.00 86 1014.9
20260508101518 55 40 1.0 10.0 0.00 0.91 0.00 86 1014.5
20260508100021 55 3 0.0 6.0 0.00 0.95 0.00 87 1014.2
20260508094516 55 30 0.0 4.0 0.00 0.95 0.00 86 1014.1
20260508093016 55 353 0.0 6.0 0.00 0.95 0.00 86 1014.0
20260508091514 55 353 0.0 6.0 0.00 0.95 0.00 87 1013.9
20260508090023 55 12 0.0 5.0 0.00 0.95 0.00 87 1013.7
20260508084512 55 342 1.0 6.0 0.00 0.95 0.00 87 1013.5
20260508083011 55 344 1.0 9.0 0.00 0.95 0.00 86 1013.4
20260508081510 55 333 0.0 8.0 0.00 0.95 0.00 87 1013.2
20260508080012 55 330 3.0 10.0 0.00 0.95 0.00 86 1012.8
20260508074516 55 338 2.0 10.0 0.00 0.95 0.00 85 1012.6
20260508073006 55 17 1.0 8.0 0.00 0.95 0.00 86 1013.0
20260508071504 56 266 0.0 6.0 0.00 0.95 0.00 84 1013.1
20260508070002 56 334 0.0 4.0 0.00 0.98 0.00 83 1012.5
20260508064501 56 41 1.0 4.0 0.00 0.98 0.00 84 1012.6
20260508063001 56 15 0.0 7.0 0.00 0.98 0.00 84 1013.0
20260508061559 57 57 1.0 7.0 0.00 0.98 0.00 84 1012.7
20260508060058 57 342 0.0 5.0 0.00 0.98 0.00 84 1012.7
20260508054557 57 44 1.0 10.0 0.00 0.98 0.00 84 1012.6
20260508053116 57 30 1.0 5.0 0.00 0.98 0.00 84 1012.9
20260508051555 58 32 1.0 8.0 0.00 0.98 0.00 84 1012.6
20260508050055 58 50 1.0 6.0 0.00 0.98 0.00 84 1012.5
20260508044557 58 54 1.0 4.0 0.00 0.98 0.00 84 1012.5
20260508043051 58 51 1.0 5.0 0.00 0.98 0.00 84 1012.3
20260508041613 58 20 1.0 4.0 0.00 0.98 0.00 84 1011.9
20260508040106 58 57 2.0 5.0 0.00 0.98 0.98 85 1011.6
20260508034547 58 43 1.0 5.0 0.00 0.98 0.98 86 1011.9